Weather History for Guatemala Aeropuertola Aurora, Guatemala

Change the Weather History Date:

Friday, July 12, 2013

  Actual Average Record
Temperature  
Mean Temperature 67 °F -  
Max Temperature 73 °F 74 °F - ()
Min Temperature 61 °F 60 °F - ()
Cooling Degree Days 2    
Growing Degree Days 17 (Base 50)    
Moisture  
Dew Point 62 °F    
Average Humidity 86    
Maximum Humidity 94    
Minimum Humidity 69    
Precipitation  
Precipitation 0.20 in - - ()
Sea Level Pressure  
Sea Level Pressure 30.22 in    
Wind  
Wind Speed 5 mph ()    
Max Wind Speed 13 mph    
Max Gust Speed -    
Visibility 5.3 miles    
Events Rain , Thunderstorm    
T = Trace of Precipitation, MM = Missing Value Source: Averaged Metar Reports

Daily Weather History Graph

Daily Weather History Graph

Search for Another Location

Airport:

Trip Planner

Search our weather history database for the weather conditions in past years. The results will help you decide how hot, cold, wet, or windy it might be!

Date:

Astronomy

Jul. 12, 2013 Rise Set
Actual Time 5:40 AM CST 6:35 PM CST
Civil Twilight 5:16 AM CST 6:58 PM CST
Nautical Twilight 4:49 AM CST 7:26 PM CST
Astronomical Twilight 4:21 AM CST 7:54 PM CST
Moon 9:10 AM CST (7/12) 9:37 PM CST (7/12)
Length of Visible Light 13h 42m
Length of Day
12h 55m
Waxing Crescent, 18% of the Moon is Illuminated
Jul 12
Waxing Crescent
Jul 15
First Quarter
Jul 22
Full
Jul 29
Last Quarter
Aug 6
New

Hourly Weather History & Observations

Time (CST) Temp. Dew Point Humidity Pressure Visibility Wind Dir Wind Speed Gust Speed Precip Events Conditions
12:00 AM 64.4 °F 62.6 °F 94% 30.30 in 6.2 mi North 6.9 mph - N/A   Scattered Clouds
1:00 AM 64.4 °F 60.8 °F 88% 30.27 in 6.2 mi North 6.9 mph - N/A   Scattered Clouds
2:00 AM 64.4 °F 62.6 °F 94% 30.24 in 6.2 mi North 6.9 mph - N/A   Overcast
3:00 AM 62.6 °F 60.8 °F 94% 30.24 in 6.2 mi NNE 6.9 mph - N/A   Mostly Cloudy
4:00 AM 62.6 °F 60.8 °F 94% 30.24 in 6.2 mi NNE 6.9 mph - N/A   Mostly Cloudy
4:42 AM - - N/A% - 6.2 mi North 6.9 mph - N/A   Light Drizzle
5:00 AM 62.6 °F 60.8 °F 94% 30.24 in 6.2 mi North 4.6 mph - N/A   Light Drizzle
5:15 AM - - N/A% - 6.2 mi NNE 4.6 mph - N/A   Mostly Cloudy
5:25 AM - - N/A% - 6.2 mi NNE 6.9 mph - N/A   Light Drizzle
5:36 AM - - N/A% - 3.1 mi NE 4.6 mph - N/A Rain Rain
5:40 AM - - N/A% - 1.2 mi NNE 6.9 mph - N/A Rain Rain
6:00 AM 62 °F 61 °F 94% 29.97 in 2 mi NNE 13.4 mph - - Rain Drizzle
6:00 AM 62.6 °F 60.8 °F 94% 30.27 in 2.5 mi NNE 6.9 mph - N/A Rain Rain
6:18 AM - - N/A% - 1.2 mi North 6.9 mph - N/A Rain Rain
6:41 AM - - N/A% - 6.2 mi North 4.6 mph - N/A   Light Drizzle
7:00 AM 62.6 °F 60.8 °F 94% 30.27 in 6.2 mi North 4.6 mph - N/A   Mostly Cloudy
8:00 AM 66.2 °F 62.6 °F 88% 30.27 in 6.2 mi North 6.9 mph - N/A   Mostly Cloudy
9:00 AM 68.0 °F 62.6 °F 83% 30.27 in 6.2 mi East 4.6 mph - N/A   Overcast
10:00 AM 69.8 °F 60.8 °F 73% 30.27 in 6.2 mi ENE 4.6 mph - N/A   Mostly Cloudy
11:00 AM 69.8 °F 62.6 °F 78% 30.27 in 6.2 mi NNE 4.6 mph - N/A   Mostly Cloudy
12:00 PM 69.8 °F 62.6 °F 78% 30.27 in 6.2 mi North 9.2 mph - N/A   Mostly Cloudy
1:00 PM 68.0 °F 60.8 °F 78% 30.24 in 6.2 mi NNE 6.9 mph - N/A   Mostly Cloudy
1:43 PM - - N/A% - 6.2 mi Calm Calm - N/A Thunderstorm Thunderstorm
2:00 PM 71.6 °F 60.8 °F 69% 30.21 in 6.2 mi North 4.6 mph - N/A Thunderstorm Thunderstorm
3:00 PM - - N/A% 30.18 in 6.2 mi South 4.6 mph - N/A Thunderstorm Thunderstorm
4:00 PM 68.0 °F 62.6 °F 83% 30.18 in 6.2 mi South 11.5 mph - N/A Thunderstorm Thunderstorm
4:30 PM - - N/A% - 6.2 mi South 6.9 mph - N/A Rain , Thunderstorm Light Thunderstorms and Rain
5:00 PM 66.2 °F 62.6 °F 88% 30.18 in 5.0 mi South 4.6 mph - N/A Rain Light Rain
5:10 PM - - N/A% - 6.2 mi Variable 2.3 mph - N/A   Mostly Cloudy
6:00 PM 66 °F 60 °F 74% 29.90 in 25 mi Calm Calm - - Rain Light Rain
6:00 PM 66.2 °F 59.0 °F 78% 30.18 in 6.2 mi Calm Calm - N/A Rain Light Rain
6:30 PM - - N/A% - 6.2 mi South 4.6 mph - N/A   Mostly Cloudy
6:44 PM - - N/A% - 4.3 mi Calm Calm - N/A   Mostly Cloudy
7:00 PM 66.2 °F 64.4 °F 94% 30.21 in 3.1 mi Calm Calm - N/A   Mostly Cloudy
8:00 PM 66.2 °F 62.6 °F 88% 30.24 in 3.1 mi Calm Calm - N/A   Mostly Cloudy
9:00 PM 64.4 °F 62.6 °F 94% 30.27 in 3.7 mi NNE 6.9 mph - N/A   Mostly Cloudy
10:00 PM 64.4 °F 60.8 °F 88% 30.27 in 5.0 mi North 9.2 mph - N/A   Mostly Cloudy
11:00 PM 64.4 °F 60.8 °F 88% 30.27 in 6.2 mi North 9.2 mph - N/A   Light Drizzle